Weather History for Ostrava, Czech Republic

Change the Weather History Date:

Friday, February 15, 2013

  Actual Average (EPKT) Record (EPKT)
Temperature  
Mean Temperature 31 °F -  
Max Temperature 33 °F 42 °F 49 °F (2014)
Min Temperature 29 °F 28 °F 10 °F (2005)
Degree Days  
Heating Degree Days 34    
Moisture  
Dew Point 31 °F    
Average Humidity 97    
Maximum Humidity 100    
Minimum Humidity 92    
Precipitation  
Precipitation 0.01 in 0.04 in - ()
Sea Level Pressure  
Sea Level Pressure 30.07 in    
Wind  
Wind Speed 2 mph ()    
Max Wind Speed 4 mph    
Max Gust Speed -    
Visibility 0.6 miles    
Events Fog , Snow    
Averages and records for this station are not official NWS values.
T = Trace of Precipitation, MM = Missing Value Source: Averaged Metar Reports

Daily Weather History Graph

Daily Weather History Graph

Search for Another Location

Airport:

Trip Planner

Search our weather history database for the weather conditions in past years. The results will help you decide how hot, cold, wet, or windy it might be!

Date:

Astronomy

Feb. 15, 2013 Rise Set
Actual Time 6:57 AM CET 5:06 PM CET
Civil Twilight 6:24 AM CET 5:39 PM CET
Nautical Twilight 5:46 AM CET 6:17 PM CET
Astronomical Twilight 5:09 AM CET 6:54 PM CET
Moon 8:47 AM CET (2/15) 11:29 PM CET (2/15)
Length of Visible Light 11h 15m
Length of Day
10h 09m
Waxing Crescent, 28% of the Moon is Illuminated
Feb 15
Waxing Crescent
Feb 17
First Quarter
Feb 25
Full
Mar 4
Last Quarter
Mar 11
New

Hourly Weather History & Observations

Time (CET) Temp. Windchill Dew Point Humidity Pressure Visibility Wind Dir Wind Speed Gust Speed Precip Events Conditions
12:00 AM 30.2 °F 26.7 °F 30.2 °F 100% 30.09 in 0.9 mi North 3.5 mph - N/A Snow Light Snow
12:30 AM 30.2 °F - 30.2 °F 100% 30.09 in 0.7 mi Calm Calm - N/A Snow Light Snow
1:00 AM 30 °F - 29 °F 95% 30.14 in 1 mi 2.2 mph - - Snow Light Snow
1:00 AM 30.2 °F - 30.2 °F 100% 30.06 in 0.7 mi Calm Calm - N/A Snow Light Snow
1:30 AM 30.2 °F - 30.2 °F 100% 30.06 in 0.6 mi Calm Calm - N/A Snow Light Snow
2:00 AM 30.2 °F - 30.2 °F 100% 30.06 in 0.6 mi Calm Calm - N/A Snow Light Snow
2:30 AM 30.2 °F - 28.4 °F 93% 30.06 in 0.6 mi SE 1.2 mph - N/A Snow Light Snow
3:00 AM 30.2 °F - 28.4 °F 93% 30.06 in 0.6 mi Variable 2.3 mph - N/A   Overcast
3:30 AM 30.2 °F - 28.4 °F 93% 30.06 in 0.6 mi SW 1.2 mph - N/A   Overcast
4:00 AM 30.2 °F - 30.2 °F 100% 30.04 in 0.7 mi Variable 1.2 mph - N/A   Overcast
4:30 AM 30.2 °F - 30.2 °F 100% 30.04 in 0.7 mi Calm Calm - N/A   Overcast
5:00 AM 30.2 °F - 30.2 °F 100% 30.04 in 0.7 mi Calm Calm - N/A   Overcast
5:30 AM 30.2 °F - 28.4 °F 93% 30.04 in 0.6 mi North 2.3 mph - N/A   Overcast
6:00 AM 30.2 °F - 28.4 °F 93% 30.04 in 0.6 mi NE 1.2 mph - N/A   Overcast
6:30 AM 30.2 °F - 30.2 °F 100% 30.04 in 0.6 mi Calm Calm - N/A Snow Light Snow
7:00 AM 30 °F - 29 °F 94% 30.10 in 0 mi 2.2 mph - - Fog Fog
7:00 AM 30.2 °F - 28.4 °F 93% 30.04 in 0.4 mi Variable 1.2 mph - N/A Fog Light Freezing Fog
7:30 AM 30.2 °F - 30.2 °F 100% 30.04 in 0.4 mi ENE 1.2 mph - N/A Fog Light Freezing Fog
8:00 AM 30.2 °F - 30.2 °F 100% 30.04 in 0.4 mi NE 2.3 mph - N/A Fog Light Freezing Fog
8:30 AM 30.2 °F - 30.2 °F 100% 30.04 in 0.4 mi Calm Calm - N/A Fog Light Freezing Fog
9:00 AM 30.2 °F - 30.2 °F 100% 30.06 in 0.4 mi Calm Calm - N/A Fog Light Freezing Fog
9:30 AM 32.0 °F - 30.2 °F 93% 30.06 in 0.4 mi NNE 2.3 mph - N/A Fog Light Freezing Fog
10:00 AM 32.0 °F 28.7 °F 30.2 °F 93% 30.04 in 0.4 mi North 3.5 mph - N/A Fog Light Freezing Fog
10:30 AM 32.0 °F - 30.2 °F 93% 30.06 in 0.4 mi NE 2.3 mph - N/A Fog , Snow Light Snow
11:00 AM 32.0 °F - 32.0 °F 100% 30.06 in 0.4 mi NNE 2.3 mph - N/A Fog , Snow Light Snow
11:30 AM 32.0 °F - 32.0 °F 100% 30.06 in 0.5 mi NE 2.3 mph - N/A Fog Fog
12:00 PM 32.0 °F - 32.0 °F 100% 30.06 in 0.6 mi NE 2.3 mph - N/A Fog Fog
12:30 PM 33.8 °F - 32.0 °F 93% 30.06 in 0.6 mi NE 2.3 mph - N/A Snow Light Snow
1:00 PM 33 °F - 32 °F 93% 30.12 in 1 mi NE 2.2 mph - - Snow Light Snow
1:00 PM 33.8 °F - 32.0 °F 93% 30.06 in 0.7 mi NE 2.3 mph - N/A Snow Light Snow
1:30 PM 33.8 °F - 32.0 °F 93% 30.06 in 0.7 mi NE 2.3 mph - N/A Snow Light Snow
2:00 PM 33.8 °F - 32.0 °F 93% 30.06 in 0.6 mi NNE 2.3 mph - N/A Snow Light Snow
2:30 PM 33.8 °F 30.8 °F 32.0 °F 93% 30.06 in 0.6 mi NE 3.5 mph - N/A Snow Light Snow
3:00 PM 33.8 °F 30.8 °F 32.0 °F 93% 30.06 in 0.7 mi NE 3.5 mph - N/A Snow Light Snow
3:30 PM 33.8 °F 30.8 °F 32.0 °F 93% 30.06 in 0.7 mi NE 3.5 mph - N/A   Overcast
4:00 PM 33.8 °F 30.8 °F 32.0 °F 93% 30.06 in 0.8 mi NE 3.5 mph - N/A   Overcast
4:30 PM 33.8 °F 30.8 °F 32.0 °F 93% 30.06 in 0.7 mi NE 3.5 mph - N/A   Light Drizzle
5:00 PM 33.8 °F - 32.0 °F 93% 30.06 in 0.8 mi NNE 2.3 mph - N/A   Light Drizzle
5:30 PM 33.8 °F 30.8 °F 32.0 °F 93% 30.06 in 1.0 mi North 3.5 mph - N/A Snow Light Snow
6:00 PM 33.8 °F - 32.0 °F 93% 30.09 in 1.0 mi NNE 2.3 mph - N/A Snow Light Snow
6:30 PM 32.0 °F 28.7 °F 32.0 °F 100% 30.09 in 0.9 mi North 3.5 mph - N/A Snow Light Snow
7:00 PM 33 °F - 31 °F 92% 30.15 in 1 mi North 4.5 mph - - Snow Light Snow
7:00 PM 32.0 °F 28.7 °F 32.0 °F 100% 30.09 in 0.7 mi North 3.5 mph - N/A Snow Light Snow
7:30 PM 32.0 °F - 32.0 °F 100% 30.09 in 0.7 mi North 2.3 mph - N/A Snow Light Snow
8:00 PM 32.0 °F - 32.0 °F 100% 30.09 in 0.7 mi Calm Calm - N/A Snow Light Snow
8:30 PM 32.0 °F - 32.0 °F 100% 30.09 in 0.7 mi Variable 1.2 mph - N/A Snow Light Snow
9:00 PM 32.0 °F - 32.0 °F 100% 30.09 in 0.7 mi Calm Calm - N/A Snow Light Snow
9:30 PM 32.0 °F - 32.0 °F 100% 30.09 in 0.6 mi Variable 1.2 mph - N/A Snow Light Snow
10:00 PM 32.0 °F - 32.0 °F 100% 30.12 in 0.5 mi Calm Calm - N/A Fog , Snow Light Snow
10:30 PM 32.0 °F - 32.0 °F 100% 30.12 in 0.5 mi NNE 1.2 mph - N/A Fog , Snow Light Snow
11:00 PM 32.0 °F - 32.0 °F 100% 30.12 in 0.3 mi Calm Calm - N/A Fog , Snow Light Snow
11:30 PM 32.0 °F - 32.0 °F 100% 30.12 in 0.3 mi SW 2.3 mph - N/A Fog , Snow Light Snow